GW2316 Weather Reports


time (UTC)temp
C
wind
direction
speed
KPH
gust
KPH
rain 1hr
cm
rain 24hr
cm
rain mn
cm
humidity
%
barometer
mb
20260506115003 14 280 17.7 25.7 0.00 0.05 0.00 74 1013.1
20260506114504 14 275 11.3 22.5 0.00 0.08 0.00 74 1013.1
20260506114005 14 291 11.3 20.9 0.00 0.08 0.00 75 1013.0
20260506113503 13 314 8.0 22.5 0.00 0.08 0.00 74 1013.0
20260506113006 13 293 9.7 22.5 0.00 0.13 0.00 75 1013.0
20260506112504 13 292 9.7 20.9 0.00 0.18 0.00 78 1013.2
20260506112006 13 279 6.4 19.3 0.00 0.20 0.00 79 1013.2
20260506111503 13 270 9.7 22.5 0.00 0.20 0.00 78 1013.2
20260506111003 13 275 14.5 27.4 0.00 0.20 0.00 75 1013.1
20260506110503 13 358 9.7 27.4 0.00 0.20 0.00 74 1013.2
20260506110004 13 270 12.9 24.1 0.00 0.20 0.00 72 1013.1
20260506105503 14 296 9.7 24.1 0.00 0.20 0.00 71 1013.1
20260506105006 14 262 11.3 24.1 0.00 0.20 0.00 71 1013.0
20260506104503 14 292 9.7 22.5 0.00 0.20 0.00 70 1012.9
20260506104005 14 298 11.3 22.5 0.00 0.20 0.00 69 1013.0
20260506103511 14 304 6.4 25.7 0.00 0.20 0.00 71 1013.0
20260506103007 14 310 9.7 25.7 0.00 0.20 0.00 69 1013.0
20260506102503 14 261 11.3 22.5 0.00 0.20 0.00 71 1013.0
20260506102002 14 300 8.0 24.1 0.00 0.20 0.00 70 1013.1
20260506101508 14 251 11.3 24.1 0.00 0.20 0.00 70 1013.1
20260506101006 14 252 9.7 24.1 0.00 0.20 0.00 71 1013.1
20260506100507 14 233 8.0 24.1 0.00 0.20 0.00 73 1013.0
20260506100008 13 260 3.2 22.5 0.00 0.20 0.00 72 1013.1
20260506095503 13 246 9.7 22.5 0.00 0.20 0.00 73 1013.2
20260506095004 13 295 9.7 20.9 0.00 0.20 0.00 74 1013.2
20260506094506 13 246 8.0 27.4 0.00 0.20 0.00 73 1013.2
20260506094003 13 250 14.5 27.4 0.00 0.20 0.00 71 1013.1
20260506093507 13 254 9.7 22.5 0.00 0.20 0.00 72 1013.1
20260506093004 13 254 8.0 20.9 0.00 0.20 0.00 74 1013.0
20260506092504 13 312 9.7 24.1 0.00 0.20 0.00 72 1013.0
20260506092007 13 302 11.3 24.1 0.00 0.20 0.00 72 1012.8
20260506091514 13 269 9.7 24.1 0.00 0.20 0.00 72 1012.8
20260506091007 13 310 8.0 25.7 0.00 0.20 0.00 72 1012.8
20260506090504 13 260 9.7 25.7 0.00 0.20 0.00 71 1012.7
20260506090017 13 273 12.9 25.7 0.00 0.20 0.00 74 1012.8
20260506085503 13 248 9.7 19.3 0.00 0.20 0.00 74 1012.7
20260506085003 13 279 8.0 17.7 0.00 0.20 0.00 74 1012.7
20260506084517 13 294 6.4 17.7 0.00 0.20 0.00 76 1012.7
20260506084010 13 256 4.8 19.3 0.00 0.20 0.00 75 1012.7
20260506083504 13 273 6.4 19.3 0.00 0.20 0.00 76 1012.7
20260506083015 12 294 3.2 16.1 0.00 0.20 0.00 77 1012.7
20260506082505 12 307 4.8 20.9 0.00 0.20 0.00 77 1012.7
20260506082006 12 298 4.8 20.9 0.00 0.20 0.00 77 1012.8
20260506081510 12 283 9.7 20.9 0.00 0.20 0.00 78 1012.7
20260506081011 12 248 4.8 17.7 0.00 0.20 0.00 80 1012.7
20260506080506 12 239 8.0 17.7 0.00 0.20 0.00 82 1012.7
20260506073509 11 301 0.0 14.5 0.00 0.20 0.00 86 1012.9
20260506073023 11 272 1.6 14.5 0.00 0.20 0.00 86 1012.9
20260506072503 11 263 4.8 14.5 0.00 0.20 0.00 87 1013.0
20260506072003 11 287 3.2 8.0 0.00 0.20 0.00 88 1013.0
20260506071504 10 267 0.0 6.4 0.00 0.20 0.00 88 1013.0
20260506071004 10 267 0.0 4.8 0.00 0.20 0.00 88 1012.9
20260506070504 10 267 0.0 4.8 0.00 0.20 0.00 90 1012.9
20260506062509 9 267 0.0 0.0 0.00 0.20 0.00 92 1012.8
20260506062009 9 267 0.0 0.0 0.00 0.20 0.00 93 1012.7
20260506061528 9 267 0.0 3.2 0.00 0.20 0.00 93 1012.8
20260506061007 9 267 0.0 3.2 0.00 0.20 0.00 92 1012.7
20260506060504 9 267 0.0 1.6 0.00 0.20 0.00 93 1012.8
20260506051006 8 267 0.0 0.0 0.00 0.18 0.00 93 1012.4
20260506050510 8 267 0.0 0.0 0.00 0.18 0.00 93 1012.4
20260506045007 7 267 0.0 0.0 0.00 0.18 0.00 93 1012.3
20260506044516 7 267 0.0 0.0 0.00 0.18 0.00 92 1012.3
20260506044006 7 267 0.0 0.0 0.00 0.18 0.00 92 1012.3
20260506043507 8 267 0.0 0.0 0.00 0.18 0.00 91 1012.2
20260506043019 8 267 0.0 0.0 0.00 0.18 0.00 91 1012.4
20260506042506 8 267 0.0 0.0 0.00 0.18 0.00 91 1012.3
20260506042010 8 267 0.0 1.6 0.00 0.18 0.00 91 1012.3
20260506041534 8 267 0.0 3.2 0.00 0.18 0.00 90 1012.2
20260506041008 8 267 0.0 3.2 0.00 0.18 0.00 90 1012.2
20260506040507 8 296 0.0 3.2 0.00 0.18 0.00 90 1012.3
20260506040004 8 296 0.0 1.6 0.00 0.18 0.00 90 1012.3
20260506035506 8 296 0.0 1.6 0.00 0.18 0.00 90 1012.4
20260506035002 8 296 0.0 1.6 0.00 0.18 0.00 90 1012.4
20260506034504 8 296 0.0 0.0 0.00 0.18 0.00 90 1012.4
20260506034004 8 296 0.0 3.2 0.00 0.18 0.00 90 1012.4
20260506033506 8 296 0.0 3.2 0.00 0.18 0.00 90 1012.5
20260506033006 8 296 1.6 3.2 0.00 0.18 0.00 90 1012.5
20260506032502 8 296 0.0 3.2 0.00 0.18 0.00 91 1012.4
20260506032002 8 296 0.0 1.6 0.00 0.18 0.00 91 1012.5
20260506031502 8 296 0.0 3.2 0.00 0.18 0.00 91 1012.5
20260506031003 8 296 0.0 4.8 0.00 0.18 0.00 91 1012.5
20260506030503 8 296 1.6 8.0 0.00 0.18 0.00 91 1012.5
20260506030005 8 296 1.6 8.0 0.00 0.18 0.00 91 1012.6
20260506025504 8 294 1.6 4.8 0.00 0.18 0.00 91 1012.5
20260506025007 8 294 0.0 8.0 0.00 0.18 0.00 91 1012.4
20260506024503 8 294 3.2 8.0 0.00 0.18 0.00 92 1012.6
20260506024002 8 298 3.2 6.4 0.00 0.18 0.00 92 1012.6
20260506023502 8 297 0.0 8.0 0.00 0.18 0.00 92 1012.5
20260506023002 8 297 3.2 8.0 0.00 0.18 0.00 92 1012.4
20260506022507 8 298 0.0 8.0 0.00 0.18 0.00 92 1012.4
20260506022004 8 302 1.6 6.4 0.00 0.18 0.00 92 1012.5
20260506021504 9 273 0.0 6.4 0.00 0.18 0.00 92 1012.4
20260506021002 9 286 0.0 6.4 0.00 0.18 0.00 92 1012.4
20260506020506 9 266 1.6 6.4 0.00 0.18 0.00 92 1012.5
20260506020003 9 291 1.6 9.7 0.00 0.18 0.00 92 1012.5
20260506015503 9 291 3.2 9.7 0.00 0.18 0.00 92 1012.5
20260506015005 9 288 0.0 6.4 0.00 0.18 0.00 92 1012.5
20260506014502 9 288 1.6 9.7 0.00 0.18 0.00 93 1012.7
20260506014004 9 279 3.2 9.7 0.00 0.18 0.00 93 1012.7
20260506013504 9 276 0.0 8.0 0.00 0.18 0.00 93 1012.7
20260506013028 9 304 1.6 8.0 0.00 0.18 0.00 93 1012.7
20260506012503 9 271 1.6 4.8 0.00 0.18 0.00 93 1012.8
20260506012003 9 271 0.0 1.6 0.00 0.18 0.00 93 1012.7
20260506011521 9 271 0.0 4.8 0.00 0.18 0.00 93 1012.7
20260506011007 9 271 0.0 4.8 0.00 0.18 0.00 93 1012.7
20260506010507 9 271 0.0 3.2 0.00 0.18 0.00 93 1012.7
20260506010007 9 271 0.0 3.2 0.00 0.18 0.00 93 1012.8
20260506005503 9 271 0.0 3.2 0.00 0.18 0.00 93 1012.9
20260506005003 9 271 0.0 3.2 0.00 0.18 0.00 93 1013.0
20260506004505 9 271 0.0 0.0 0.00 0.18 0.00 92 1013.1
20260506004003 9 271 0.0 0.0 0.00 0.18 0.00 92 1013.1
20260506003504 9 271 0.0 0.0 0.00 0.18 0.00 92 1013.2
20260506003005 9 271 0.0 0.0 0.00 0.18 0.00 92 1013.2
20260506002504 9 271 0.0 1.6 0.00 0.18 0.00 92 1013.2
20260506002007 9 271 0.0 1.6 0.00 0.20 0.00 92 1013.3
20260506001503 9 271 0.0 0.0 0.00 0.20 0.00 92 1013.3
20260506001003 9 271 0.0 0.0 0.00 0.20 0.00 92 1013.3
20260506000504 9 271 0.0 0.0 0.00 0.20 0.00 92 1013.4
20260506000019 9 271 0.0 3.2 0.00 0.20 0.00 92 1013.4
20260505235503 9 271 0.0 3.2 0.00 0.20 0.00 92 1013.4
20260505235002 9 271 0.0 3.2 0.00 0.20 0.00 92 1013.4
20260505234512 9 271 0.0 3.2 0.00 0.20 0.00 91 1013.4
20260505234007 9 271 0.0 3.2 0.00 0.20 0.00 91 1013.3
20260505233506 9 271 0.0 4.8 0.00 0.20 0.00 91 1013.3
20260505233011 9 271 0.0 6.4 0.00 0.20 0.00 91 1013.2
20260505232506 9 271 0.0 6.4 0.00 0.20 0.00 91 1013.3
20260505232007 9 267 0.0 6.4 0.00 0.20 0.00 91 1013.3
20260505231512 9 260 1.6 6.4 0.00 0.20 0.00 92 1013.4
20260505231004 9 292 0.0 8.0 0.00 0.20 0.00 92 1013.4
20260505230504 9 254 0.0 8.0 0.00 0.20 0.00 92 1013.4
20260505230026 9 266 0.0 4.8 0.00 0.20 0.00 93 1013.4
20260505225504 8 266 0.0 3.2 0.00 0.20 0.00 93 1013.4
20260505225007 9 266 0.0 3.2 0.00 0.20 0.00 93 1013.4
20260505224520 9 266 0.0 1.6 0.00 0.20 0.00 93 1013.5
20260505224009 9 266 0.0 3.2 0.00 0.20 0.00 93 1013.6
20260505223506 9 266 0.0 3.2 0.00 0.20 0.00 93 1013.6
20260505223021 9 266 0.0 3.2 0.00 0.20 0.00 93 1013.6
20260505222510 9 266 0.0 1.6 0.00 0.20 0.00 93 1013.6
20260505222003 9 266 0.0 3.2 0.00 0.20 0.00 93 1013.7
20260505221516 9 266 0.0 3.2 0.00 0.20 0.00 93 1013.7
20260505221005 9 266 0.0 3.2 0.00 0.20 0.00 92 1013.7
20260505220502 9 266 0.0 1.6 0.00 0.20 0.00 93 1013.7
20260505220028 9 266 0.0 1.6 0.00 0.20 0.00 92 1013.7
20260505215506 9 266 0.0 0.0 0.00 0.20 0.20 92 1013.8
20260505215006 9 266 0.0 0.0 0.00 0.20 0.20 91 1013.8
20260505214507 9 266 0.0 0.0 0.00 0.20 0.20 91 1013.8
20260505214007 9 266 0.0 0.0 0.00 0.20 0.20 91 1013.8
20260505213506 9 266 0.0 0.0 0.00 0.20 0.20 91 1013.8
20260505213024 10 266 0.0 0.0 0.00 0.20 0.20 91 1013.9
20260505212506 10 266 0.0 0.0 0.00 0.20 0.20 91 1013.9
20260505212008 10 266 0.0 0.0 0.00 0.20 0.20 92 1013.9
20260505211526 10 266 0.0 0.0 0.00 0.20 0.20 92 1014.0
20260505211012 10 266 0.0 0.0 0.00 0.20 0.20 92 1014.1
20260505210506 10 266 0.0 0.0 0.00 0.20 0.20 92 1014.1
20260505210022 10 266 0.0 0.0 0.00 0.20 0.20 91 1014.0
20260505205511 10 266 0.0 0.0 0.00 0.20 0.20 92 1014.0
20260505205005 10 266 0.0 1.6 0.00 0.20 0.20 92 1014.0
20260505204506 10 266 0.0 1.6 0.00 0.20 0.20 92 1014.0
20260505204008 10 266 0.0 1.6 0.00 0.20 0.20 91 1013.9
20260505203502 10 266 0.0 1.6 0.00 0.20 0.20 91 1013.9
20260505203004 10 266 0.0 1.6 0.00 0.20 0.20 91 1013.9
20260505202504 10 266 0.0 1.6 0.00 0.20 0.20 91 1013.9
20260505202004 10 266 0.0 1.6 0.00 0.20 0.20 91 1013.9
20260505201504 10 266 0.0 1.6 0.00 0.20 0.20 91 1013.8
20260505201003 10 266 0.0 0.0 0.00 0.20 0.20 90 1013.7
20260505200503 10 266 0.0 0.0 0.00 0.20 0.20 90 1013.6
20260505200014 10 266 0.0 0.0 0.00 0.20 0.20 90 1013.6
20260505195503 10 266 0.0 0.0 0.00 0.20 0.20 90 1013.5
20260505195003 10 266 0.0 0.0 0.00 0.20 0.20 89 1013.3
20260505194508 10 266 0.0 1.6 0.00 0.20 0.20 89 1013.3
20260505194007 10 266 0.0 1.6 0.00 0.20 0.20 88 1013.3
20260505193503 10 266 0.0 1.6 0.00 0.20 0.20 88 1013.2
20260505193005 10 266 0.0 0.0 0.00 0.20 0.20 87 1013.2
20260505192507 10 266 0.0 1.6 0.00 0.20 0.20 87 1013.2
20260505192002 11 266 0.0 1.6 0.00 0.20 0.20 86 1013.2
20260505191506 11 266 0.0 1.6 0.00 0.20 0.20 86 1013.2
20260505191003 11 266 0.0 1.6 0.00 0.20 0.20 86 1013.2
20260505190504 11 266 0.0 4.8 0.00 0.20 0.20 85 1013.2
20260505190005 11 266 0.0 4.8 0.00 0.20 0.20 85 1013.2
20260505185503 11 266 0.0 3.2 0.00 0.20 0.20 84 1013.2
20260505185004 11 266 0.0 4.8 0.00 0.20 0.20 84 1013.1
20260505184508 11 266 0.0 11.3 0.00 0.20 0.20 83 1013.1
20260505184002 11 266 1.6 11.3 0.00 0.20 0.20 83 1013.1
20260505183503 11 247 3.2 6.4 0.00 0.20 0.20 82 1013.1
20260505183013 12 267 0.0 6.4 0.00 0.20 0.20 81 1012.9
20260505182506 12 275 1.6 11.3 0.00 0.20 0.20 81 1012.9
20260505182003 12 277 0.0 14.5 0.00 0.20 0.20 80 1012.9
20260505181512 12 258 1.6 16.1 0.00 0.20 0.20 79 1012.9
20260505181008 12 247 4.8 17.7 0.00 0.20 0.20 77 1012.8
20260505180502 13 260 8.0 17.7 0.00 0.20 0.20 76 1012.8
20260505180008 13 314 4.8 16.1 0.00 0.20 0.20 76 1012.8
20260505175504 13 255 9.7 17.7 0.00 0.20 0.20 76 1012.8
20260505175004 13 258 9.7 17.7 0.00 0.20 0.20 75 1012.8
20260505174505 13 283 4.8 22.5 0.00 0.20 0.20 75 1012.8
20260505174005 13 304 11.3 22.5 0.00 0.20 0.20 78 1012.8
20260505173506 13 285 1.6 11.3 0.00 0.20 0.20 86 1012.9
20260505173014 12 250 0.0 12.9 0.00 0.20 0.20 85 1012.9
20260505172502 12 271 3.2 17.7 0.00 0.20 0.20 84 1012.9
20260505172005 12 264 3.2 17.7 0.00 0.20 0.20 85 1012.9
20260505171519 13 283 1.6 16.1 0.00 0.20 0.20 85 1013.0
20260505171003 13 269 6.4 16.1 0.00 0.23 0.20 84 1012.9
20260505170505 12 248 0.0 9.7 0.00 0.23 0.20 86 1012.9
20260505170019 12 237 0.0 12.9 0.00 0.23 0.20 86 1012.9
20260505165506 12 236 3.2 12.9 0.00 0.23 0.20 85 1013.0
20260505165004 12 242 0.0 14.5 0.00 0.23 0.20 84 1013.0
20260505164504 13 234 1.6 14.5 0.00 0.25 0.20 85 1013.0
20260505164003 13 233 0.0 11.3 0.00 0.25 0.20 85 1013.0
20260505163503 13 220 4.8 11.3 0.00 0.28 0.20 84 1013.0
20260505163009 13 250 1.6 11.3 0.00 0.30 0.20 84 1013.0
20260505162503 13 264 3.2 11.3 0.00 0.36 0.20 83 1013.0
20260505162007 13 255 1.6 8.0 0.00 0.41 0.20 81 1013.1
20260505161527 13 269 1.6 12.9 0.00 0.46 0.20 81 1013.0
20260505161007 13 255 4.8 12.9 0.00 0.46 0.20 80 1013.0
20260505160510 13 231 0.0 12.9 0.00 0.48 0.20 80 1013.0
20260505153013 13 226 0.0 17.7 0.00 0.56 0.20 79 1012.9
20260505152505 13 241 4.8 19.3 0.00 0.61 0.20 76 1012.9
20260505152002 13 245 11.3 19.3 0.00 0.64 0.20 79 1012.9
20260505151512 13 264 0.0 9.7 0.00 0.71 0.20 79 1012.9
20260505151006 13 234 1.6 9.7 0.00 0.74 0.20 81 1012.9
20260505150506 13 261 1.6 11.3 0.00 0.81 0.20 84 1013.1
20260505140505 11 198 0.0 9.7 0.03 1.04 0.20 91 1013.2
20260505125003 11 271 0.0 14.5 0.00 1.02 0.18 92 1013.5
20260505124509 11 256 3.2 14.5 0.00 1.02 0.18 91 1013.6
20260505124002 11 263 1.6 14.5 0.00 1.02 0.18 91 1013.5
20260505123503 10 285 4.8 24.1 0.00 1.02 0.18 90 1013.5
20260505123003 11 284 11.3 24.1 0.08 1.02 0.18 90 1013.6
20260505122503 11 278 9.7 24.1 0.13 1.02 0.18 89 1013.6
20260505122004 11 242 9.7 25.7 0.15 1.02 0.18 90 1013.6
20260505121509 11 287 8.0 25.7 0.15 1.02 0.18 91 1013.5
20260505121003 11 239 9.7 19.3 0.15 1.02 0.18 91 1013.4
20260505120502 11 283 3.2 16.1 0.15 1.02 0.18 93 1013.2
20260505120005 11 251 8.0 20.9 0.15 1.04 0.18 94 1013.2
20260505115502 11 306 6.4 20.9 0.15 1.09 0.18 93 1013.3